星链-3607 (STARLINK-3607 )

导读 | 豆包AI

STARLINK-3607是美国太空探索技术公司(SpaceX)星链星座的一颗卫星,于2022年2月25日发射。星链项目旨在构建全球卫星互联网星座,为全球偏远地区、海洋、航空等场景提供高速互联网接入服务。该卫星入轨后,会与其他星链卫星组网,进一步扩大星座覆盖范围,提升服务能力。

基本信息
目录编号:
51809
目录名称:
STARLINK-3607
国际标识:
2022-017AT
轨道中心:
EARTH
卫星名称:
星链-3607
卫星全名:
星链-3607 (STARLINK-3607 )
卫星状态:
在轨 (已飞行1525 天)
发射日期:
2022-02-25 UTC
国别 :
美国 (US)
星等 :
--
轨道信息
数据来源 国际轨道数据
星历时间: 2026-04-30T13:35:24+0800
17小时前
查看轨道信息
半长轴: 6917.904km
偏心率: 0.0001556
轨道倾角: 53.217°
近地点辐角 56.396°
升交点赤经 107.698°
平近点角 303.719°
近地点: 538.69km
远地点: 540.844km
周期: 95.438分钟
每日圈数: 15.088325
详细信息
固有亮度:
5
最大亮度:
2.5
卫星平台:
Starlink v1.5
覆盖范围:
全球
运营商:
太空探索技术公司
运营商所在国:
美国
制造商(研发单位):
太空探索技术公司
制造商所在国:
美国
使用方式:
暂无
卫星简介
星链(Starlink)计划是由太空探索技术公司(SpaceX)提出的一个巨型低轨卫星互联网星座项目,计划在2019年至2024年间在太空搭建由约1.2万颗卫星组成的“星链”网络,其中1584颗将部署在地球上空550千米处的近地轨道,并从2020年开始工作。该卫星仍在工作。
2D轨道图
3D轨道图
轨道高度分析图
轨道倾角分析图
轨道综合分析图
查看轨道综合分析图